Current weather by "City, St" or "zip code"  
 
Advertise Here

Current Conditions: Springfield, Springfield Regional Airport, MO

Overcast


48.0 F

Last Updated on Nov 23 2020, 9:52 pm CST
Humidity: 63%
Wind Speed: S 19.6 G 28.8 mph
Barometer 30.11 in
Dewpoint: 36.0 F
Visibility: 10.00 mi
Precip: --
Heat Index: NA
Wind Chill: 41 F
Current conditions at:

Springfield, Springfield Regional Airport, MO (KSGF)

Lat: 37.23972 Lon: 93.38972

Local Radar Image active severe weather and emergency alerts image image weather storm and storm spotter reports image weather observation monitoring service image
Local
Radar
Active
Alerts
Storm Reports Obs
Monitoring

Sign-up For Email & Text Message Weather Alert Notification Services


Advertise Here

Observation History for Springfield, Springfield Regional Airport, MO


Time Wind
(mph)
Vis
(mi)
Weather Precip (in) Temperature (F) Relative
Humidity
Wind
Chill
(F)
Heat
Index
(F)
Pressure
Air Dwpt altimeter
(in)
sea level
(mb)
Rmks
9:52 pm CST S 19.6 G 28.8 10.00 Overcast -- 48.0 36.0 63% 41 NA 30.11 1020.3
8:52 pm CST SE 17.3 G 27.6 10.00 Overcast -- 47.0 37.0 69% 40 NA 30.12 1020.4
7:52 pm CST SE 13.8 10.00 Overcast -- 47.0 37.9 71% 41 NA 30.13 1021.0
6:52 pm CST SE 12.7 10.00 Overcast -- 47.0 37.9 71% 41 NA 30.15 1021.6
5:52 pm CST SE 13.8 10.00 Overcast -- 48.0 37.0 66% 42 NA 30.16 1021.9
3:52 pm CST SE 11.5 10.00 Overcast -- 49.0 37.9 66% 44 NA 30.17 1022.4
1:52 pm CST S 12.7 10.00 Fair -- 51.0 36.0 56% 46 NA 30.23 1024.1
12:52 pm CST SE 12.7 10.00 Overcast -- 49.0 37.9 66% 44 NA 30.25 1025.1
11:52 am CST S 8.1 10.00 Mostly Cloudy -- 46.0 39.9 79% 42 NA 30.30 1026.6
10:52 am CST S 4.6 8.00 Overcast -- 40.0 39.0 97% 37 NA 30.34 1028.1
9:52 am CST SE 5.8 0.25 Fog -- 36.0 36.0 100% 31 NA 30.34 1028.4
8:52 am CST SE 8.1 0.25 Fog -- 32.0 32.0 100% 25 NA 30.35 1028.7
7:52 am CST S 3.5 0.25 Freezing Fog -- 30.0 30.0 100% NA NA 30.35 1028.6
6:52 am CST SE 4.6 0.50 Freezing Fog -- 27.0 27.0 100% 22 NA 30.33 1028.1
5:52 am CST SE 5.8 1.00 Fog/Mist -- 28.0 27.0 96% 22 NA 30.34 1028.4
4:52 am CST SE 5.8 2.00 Fog/Mist -- 28.0 27.0 96% 22 NA 30.34 1028.3
3:52 am CST S 4.6 2.00 Fog/Mist -- 28.0 27.0 96% 23 NA 30.34 1028.4
2:52 am CST SE 4.6 0.50 Freezing Fog -- 29.0 28.9 100% 24 NA 30.33 1028.0
1:52 am CST N 0.0 1.75 Fog/Mist -- 30.0 28.9 96% NA NA 30.35 1028.5
12:52 am CST S 4.6 0.50 Freezing Fog -- 31.0 30.9 100% 26 NA 30.35 1028.4
11:52 pm CST S 5.8 5.00 Fog/Mist -- 33.0 33.1 100% 28 NA 30.36 1028.7
10:52 pm CST SW 5.8 5.00 Fog/Mist -- 35.0 34.0 96% 30 NA 30.36 1028.8

Regional Weather Observation


Joplin, Joplin Regional Airport, MO (KJLN)

Overcast
51.0 F

Atkinson Municipal Airport, KS (KPTS)

Overcast
51.0 F

Camdenton Memorial Airport, MO (KH21)

NULL
19.0 F

Monett, MO (KHFJ)

Overcast
46.0 F

Branson, MO (KBBG)

Overcast
45.0 F

Clinton, MO, MO (KGLY)

Overcast
46.0 F